| time (UTC) | temp F | wind direction | speed knots | gust knots | rain 1hr in | rain 24hr in | rain mn in | humidity % | barometer mb |
| 20260506122322 | 66 | 359 | 2.6 | 7.0 | 0.00 | 0.00 | 0.00 | 1 | 1006.0 |
| 20260506121318 | 65 | 359 | 0.9 | 5.2 | 0.00 | 0.00 | 0.00 | 1 | 1005.9 |
| 20260506120323 | 65 | 359 | 1.7 | 7.0 | 0.00 | 0.00 | 0.00 | 1 | 1006.0 |
| 20260506115319 | 65 | 359 | 2.6 | 8.7 | 0.00 | 0.00 | 0.00 | 1 | 1006.2 |
| 20260506114318 | 65 | 359 | 1.7 | 5.2 | 0.00 | 0.00 | 0.00 | 1 | 1006.0 |
| 20260506113317 | 65 | 359 | 1.7 | 8.7 | 0.00 | 0.00 | 0.00 | 1 | 1005.8 |
| 20260506112336 | 65 | 359 | 3.5 | 9.6 | 0.00 | 0.00 | 0.00 | 1 | 1005.9 |
| 20260506111327 | 65 | 359 | 1.7 | 5.2 | 0.00 | 0.00 | 0.00 | 1 | 1005.8 |
| 20260506110321 | 65 | 359 | 0.9 | 7.8 | 0.00 | 0.00 | 0.00 | 1 | 1005.9 |
| 20260506105319 | 65 | 359 | 2.6 | 8.7 | 0.00 | 0.00 | 0.00 | 1 | 1005.7 |
| 20260506104317 | 65 | 359 | 2.6 | 9.6 | 0.00 | 0.00 | 0.00 | 1 | 1005.9 |
| 20260506103316 | 65 | 359 | 1.7 | 5.2 | 0.00 | 0.00 | 0.00 | 1 | 1005.7 |
| 20260506102315 | 65 | 359 | 0.9 | 7.0 | 0.00 | 0.00 | 0.00 | 1 | 1005.6 |
| 20260506101320 | 65 | 359 | 0.9 | 4.3 | 0.00 | 0.00 | 0.00 | 1 | 1005.8 |
| 20260506100317 | 65 | 359 | 0.0 | 4.3 | 0.00 | 0.00 | 0.00 | 1 | 1005.6 |
| 20260506095315 | 65 | 359 | 2.6 | 7.0 | 0.00 | 0.00 | 0.00 | 1 | 1005.4 |
| 20260506094311 | 65 | 359 | 1.7 | 7.8 | 0.00 | 0.00 | 0.00 | 1 | 1005.6 |
| 20260506093350 | 65 | 359 | 4.3 | 8.7 | 0.00 | 0.00 | 0.00 | 1 | 1005.7 |
| 20260506092319 | 65 | 359 | 2.6 | 4.3 | 0.00 | 0.00 | 0.00 | 1 | 1005.6 |
| 20260506091324 | 65 | 359 | 2.6 | 7.8 | 0.00 | 0.00 | 0.00 | 1 | 1005.6 |
| 20260506090321 | 65 | 359 | 0.9 | 5.2 | 0.00 | 0.00 | 0.00 | 1 | 1005.5 |
| 20260506085320 | 66 | 359 | 0.9 | 7.0 | 0.00 | 0.00 | 0.00 | 1 | 1005.7 |
| 20260506084330 | 66 | 359 | 0.9 | 7.8 | 0.00 | 0.00 | 0.00 | 4 | 1005.7 |
| 20260506083326 | 66 | 359 | 0.9 | 8.7 | 0.00 | 0.00 | 0.00 | 14 | 1005.7 |
| 20260506082323 | 66 | 359 | 1.7 | 5.2 | 0.00 | 0.00 | 0.00 | 20 | 1005.8 |
| 20260506081318 | 67 | 359 | 0.9 | 4.3 | 0.00 | 0.00 | 0.00 | 27 | 1005.8 |
| 20260506080334 | 67 | 359 | 0.0 | 4.3 | 0.00 | 0.00 | 0.00 | 32 | 1005.9 |
| 20260506073314 | 67 | 359 | 0.0 | 2.6 | 0.00 | 0.00 | 0.00 | 43 | 1005.9 |
| 20260506072333 | 67 | 359 | 0.0 | 3.5 | 0.00 | 0.00 | 0.00 | 46 | 1005.9 |
| 20260506071352 | 68 | 359 | 0.9 | 3.5 | 0.00 | 0.00 | 0.00 | 49 | 1005.9 |
| 20260506070325 | 68 | 359 | 0.0 | 3.5 | 0.00 | 0.00 | 0.00 | 51 | 1006.1 |
| 20260506062326 | 69 | 359 | 2.6 | 7.0 | 0.00 | 0.00 | 0.00 | 53 | 1006.3 |
| 20260506061326 | 69 | 359 | 2.6 | 7.8 | 0.00 | 0.00 | 0.00 | 53 | 1006.2 |
| 20260506060318 | 69 | 359 | 0.9 | 7.0 | 0.00 | 0.00 | 0.00 | 53 | 1006.3 |
| 20260506051316 | 70 | 359 | 4.3 | 13.9 | 0.00 | 0.00 | 0.00 | 54 | 1006.5 |
| 20260506050336 | 70 | 359 | 2.6 | 7.0 | 0.00 | 0.00 | 0.00 | 55 | 1006.7 |
| 20260506044321 | 70 | 359 | 1.7 | 7.0 | 0.00 | 0.00 | 0.00 | 54 | 1006.8 |
| 20260506043319 | 70 | 359 | 0.9 | 8.7 | 0.00 | 0.00 | 0.00 | 53 | 1006.7 |
| 20260506042327 | 71 | 359 | 1.7 | 5.2 | 0.00 | 0.00 | 0.00 | 53 | 1006.7 |
| 20260506041319 | 71 | 359 | 1.7 | 8.7 | 0.00 | 0.00 | 0.00 | 52 | 1006.7 |
| 20260506040330 | 71 | 62 | 0.9 | 6.1 | 0.00 | 0.00 | 0.00 | 51 | 1006.6 |
| 20260506035320 | 72 | 187 | 2.6 | 6.1 | 0.00 | 0.00 | 0.00 | 50 | 1006.5 |
| 20260506034327 | 72 | 201 | 1.7 | 8.7 | 0.00 | 0.00 | 0.00 | 49 | 1006.5 |
| 20260506033322 | 72 | 359 | 0.0 | 3.5 | 0.00 | 0.00 | 0.00 | 48 | 1006.4 |
| 20260506032319 | 72 | 359 | 0.9 | 9.6 | 0.00 | 0.00 | 0.00 | 47 | 1006.4 |
| 20260506031315 | 73 | 186 | 2.6 | 6.1 | 0.00 | 0.00 | 0.00 | 47 | 1006.4 |
| 20260506030311 | 73 | 160 | 1.7 | 7.0 | 0.00 | 0.00 | 0.00 | 47 | 1006.3 |
| 20260506025348 | 73 | 229 | 2.6 | 7.0 | 0.00 | 0.00 | 0.00 | 46 | 1006.3 |
| 20260506024322 | 74 | 155 | 1.7 | 7.0 | 0.00 | 0.00 | 0.00 | 46 | 1006.3 |
| 20260506023320 | 74 | 224 | 3.5 | 10.4 | 0.00 | 0.00 | 0.00 | 45 | 1006.2 |
| 20260506022338 | 74 | 172 | 2.6 | 9.6 | 0.00 | 0.00 | 0.00 | 45 | 1006.1 |
| 20260506021328 | 74 | 193 | 2.6 | 9.6 | 0.00 | 0.00 | 0.00 | 44 | 1006.1 |
| 20260506020325 | 74 | 277 | 1.7 | 7.8 | 0.00 | 0.00 | 0.00 | 44 | 1006.0 |
| 20260506015323 | 74 | 197 | 1.7 | 6.1 | 0.00 | 0.00 | 0.00 | 42 | 1006.0 |
| 20260506014320 | 75 | 170 | 0.9 | 4.3 | 0.00 | 0.00 | 0.00 | 41 | 1006.1 |
| 20260506013340 | 75 | 228 | 0.9 | 8.7 | 0.00 | 0.00 | 0.00 | 40 | 1006.0 |
| 20260506012328 | 75 | 182 | 2.6 | 7.8 | 0.00 | 0.00 | 0.00 | 39 | 1005.8 |
| 20260506011323 | 75 | 249 | 2.6 | 7.8 | 0.00 | 0.00 | 0.00 | 39 | 1005.7 |
| 20260506010321 | 75 | 170 | 2.6 | 7.0 | 0.00 | 0.00 | 0.00 | 39 | 1005.5 |
| 20260506005320 | 75 | 239 | 3.5 | 7.0 | 0.00 | 0.00 | 0.00 | 39 | 1005.5 |
| 20260506004319 | 75 | 158 | 2.6 | 6.1 | 0.00 | 0.00 | 0.00 | 38 | 1005.4 |
| 20260506003329 | 75 | 60 | 0.9 | 6.1 | 0.00 | 0.00 | 0.00 | 39 | 1005.4 |
| 20260506002340 | 76 | 191 | 2.6 | 5.2 | 0.00 | 0.00 | 0.00 | 38 | 1005.3 |
| 20260506001317 | 76 | 145 | 3.5 | 8.7 | 0.00 | 0.00 | 0.00 | 38 | 1005.2 |
| 20260506000323 | 76 | 259 | 1.7 | 7.0 | 0.00 | 0.00 | 0.00 | 37 | 1005.2 |
| 20260505235321 | 76 | 185 | 3.5 | 13.9 | 0.00 | 0.00 | 0.00 | 37 | 1005.1 |
| 20260505234319 | 77 | 359 | 0.9 | 10.4 | 0.00 | 0.00 | 0.00 | 37 | 1005.0 |
| 20260505233315 | 77 | 156 | 2.6 | 8.7 | 0.00 | 0.00 | 0.00 | 36 | 1004.9 |
| 20260505232324 | 78 | 172 | 2.6 | 12.2 | 0.00 | 0.00 | 0.00 | 36 | 1004.6 |
| 20260505231319 | 78 | 95 | 2.6 | 15.6 | 0.00 | 0.00 | 0.00 | 36 | 1004.5 |
| 20260505230316 | 78 | 144 | 5.2 | 12.2 | 0.00 | 0.00 | 0.00 | 35 | 1004.5 |
| 20260505225314 | 79 | 213 | 4.3 | 10.4 | 0.00 | 0.00 | 0.00 | 35 | 1004.5 |
| 20260505224324 | 79 | 153 | 3.5 | 11.3 | 0.00 | 0.00 | 0.00 | 35 | 1004.2 |
| 20260505223340 | 79 | 201 | 7.0 | 13.0 | 0.00 | 0.00 | 0.00 | 34 | 1004.0 |
| 20260505222345 | 79 | 214 | 4.3 | 11.3 | 0.00 | 0.00 | 0.00 | 33 | 1004.2 |
| 20260505221320 | 80 | 359 | 4.3 | 18.2 | 0.00 | 0.00 | 0.00 | 33 | 1004.1 |
| 20260505220328 | 81 | 359 | 7.8 | 14.8 | 0.00 | 0.00 | 0.00 | 32 | 1003.9 |
| 20260505215326 | 81 | 359 | 4.3 | 18.2 | 0.00 | 0.00 | 0.00 | 33 | 1003.9 |
| 20260505214323 | 81 | 359 | 3.5 | 17.4 | 0.00 | 0.00 | 0.00 | 33 | 1003.7 |
| 20260505213322 | 81 | 359 | 4.3 | 12.2 | 0.00 | 0.00 | 0.00 | 32 | 1003.7 |
| 20260505212320 | 81 | 359 | 6.1 | 16.5 | 0.00 | 0.00 | 0.00 | 32 | 1003.8 |
| 20260505211327 | 81 | 359 | 5.2 | 15.6 | 0.00 | 0.00 | 0.00 | 33 | 1003.7 |
| 20260505210343 | 82 | 359 | 5.2 | 12.2 | 0.00 | 0.00 | 0.00 | 32 | 1003.5 |
| 20260505205321 | 82 | 359 | 3.5 | 11.3 | 0.00 | 0.00 | 0.00 | 33 | 1003.3 |
| 20260505204319 | 82 | 359 | 4.3 | 13.9 | 0.00 | 0.00 | 0.00 | 32 | 1003.4 |
| 20260505203314 | 83 | 359 | 6.1 | 13.9 | 0.00 | 0.00 | 0.00 | 32 | 1003.3 |
| 20260505202330 | 82 | 359 | 3.5 | 14.8 | 0.00 | 0.00 | 0.00 | 32 | 1003.5 |
| 20260505201325 | 82 | 359 | 2.6 | 17.4 | 0.00 | 0.00 | 0.00 | 34 | 1003.7 |
| 20260505200344 | 82 | 359 | 7.0 | 14.8 | 0.00 | 0.00 | 0.00 | 33 | 1004.0 |
| 20260505195320 | 83 | 359 | 4.3 | 13.0 | 0.00 | 0.00 | 0.00 | 33 | 1003.9 |
| 20260505194319 | 83 | 359 | 3.5 | 13.0 | 0.00 | 0.00 | 0.00 | 34 | 1004.0 |
| 20260505193344 | 83 | 359 | 3.5 | 15.6 | 0.00 | 0.00 | 0.00 | 33 | 1004.1 |
| 20260505192340 | 83 | 359 | 5.2 | 11.3 | 0.00 | 0.00 | 0.00 | 33 | 1004.2 |
| 20260505191316 | 82 | 359 | 6.1 | 14.8 | 0.00 | 0.00 | 0.00 | 34 | 1004.4 |
| 20260505190325 | 82 | 359 | 7.0 | 17.4 | 0.00 | 0.00 | 0.00 | 34 | 1004.6 |
| 20260505185316 | 83 | 359 | 7.8 | 14.8 | 0.00 | 0.00 | 0.00 | 35 | 1004.6 |
| 20260505184335 | 82 | 359 | 2.6 | 13.9 | 0.00 | 0.00 | 0.00 | 38 | 1004.6 |
| 20260505183324 | 82 | 359 | 3.5 | 12.2 | 0.00 | 0.00 | 0.00 | 37 | 1004.8 |
| 20260505182321 | 82 | 359 | 3.5 | 11.3 | 0.00 | 0.00 | 0.00 | 38 | 1005.1 |
| 20260505181319 | 81 | 359 | 5.2 | 15.6 | 0.00 | 0.00 | 0.00 | 38 | 1005.3 |
| 20260505180334 | 81 | 359 | 6.1 | 13.9 | 0.00 | 0.00 | 0.00 | 37 | 1005.3 |
| 20260505175320 | 80 | 359 | 3.5 | 20.0 | 0.00 | 0.00 | 0.00 | 39 | 1005.3 |
| 20260505174317 | 80 | 359 | 7.0 | 18.2 | 0.00 | 0.00 | 0.00 | 40 | 1005.5 |
| 20260505173323 | 80 | 359 | 6.1 | 16.5 | 0.00 | 0.00 | 0.00 | 40 | 1005.6 |
| 20260505172341 | 80 | 359 | 5.2 | 13.0 | 0.00 | 0.00 | 0.00 | 41 | 1005.7 |
| 20260505171313 | 80 | 359 | 3.5 | 13.0 | 0.00 | 0.00 | 0.00 | 41 | 1005.6 |
| 20260505170330 | 79 | 359 | 4.3 | 13.0 | 0.00 | 0.00 | 0.00 | 41 | 1005.7 |
| 20260505165317 | 79 | 359 | 4.3 | 11.3 | 0.00 | 0.00 | 0.00 | 43 | 1005.9 |
| 20260505164327 | 78 | 359 | 3.5 | 12.2 | 0.00 | 0.00 | 0.00 | 44 | 1006.1 |
| 20260505163324 | 78 | 359 | 2.6 | 13.0 | 0.00 | 0.00 | 0.00 | 44 | 1006.2 |
| 20260505162341 | 77 | 359 | 2.6 | 9.6 | 0.00 | 0.00 | 0.00 | 44 | 1006.3 |
| 20260505161328 | 77 | 359 | 2.6 | 13.9 | 0.00 | 0.00 | 0.00 | 44 | 1006.5 |
| 20260505160324 | 77 | 359 | 4.3 | 9.6 | 0.00 | 0.00 | 0.00 | 44 | 1006.8 |
| 20260505153319 | 76 | 359 | 2.6 | 9.6 | 0.00 | 0.00 | 0.00 | 47 | 1007.1 |
| 20260505152317 | 75 | 359 | 5.2 | 11.3 | 0.00 | 0.00 | 0.00 | 47 | 1007.0 |
| 20260505151312 | 75 | 359 | 2.6 | 11.3 | 0.00 | 0.00 | 0.00 | 47 | 1007.0 |
| 20260505150330 | 75 | 359 | 2.6 | 7.8 | 0.00 | 0.00 | 0.00 | 48 | 1007.0 |
| 20260505140336 | 71 | 359 | 6.1 | 13.0 | 0.00 | 0.00 | 0.00 | 50 | 1007.5 |
| 20260505124328 | 63 | 359 | 0.9 | 3.5 | 0.00 | 0.00 | 0.00 | 1 | 1007.4 |
| 20260505123323 | 62 | 359 | 1.7 | 3.5 | 0.00 | 0.00 | 0.00 | 1 | 1007.2 |